Location: Congrier
(47.8099°N, 1.1170°W)
Time: 23:45:22
(UTC+00:00)

Timation 2 Rocket - Pass Details

Date: 28 January 2023
Orbit: 905 x 1075 km, 70.0° (Epoch: 21 March)

Event Time Altitude Azimuth Distance (km) Brightness Sun altitude
Rises 18:50:13 0° 329° (NNW) 3,588 7.3 -18.7°
Reaches altitude 10° 18:52:42 10° 329° (NNW) 2,659 6.6 -19.2°
Maximum altitude 18:58:52 79° 243° (WSW) 987 4.1 -20.2°
Drops below altitude 10° 19:05:16 10° 158° (SSE) 2,757 6.2 -21.3°
Sets 19:07:53 0° 158° (SSE) 3,729 6.9 -21.7°
